Home   Weather   37°04'N, 15°16'E   Past weeks
Flag for Italy

Past Weather in 37°04'N, 15°16'E, Italy — Yesterday and Last 2 Weeks

Currently: 46 °F. Passing clouds. (Weather station: Catania / Fontanarossa, Italy). See more current weather

Past Weather in 37°04'N, 15°16'E — Graph

°F

37°04'N, 15°16'E Temperature Yesterday

Maximum temperature yesterday: 64 °F (at 1:50 pm)
Minimum temperature yesterday: 54 °F (at 11:20 pm)
Average temperature yesterday: 61 °F

High & Low Weather Summary for the Past Weeks

 TemperatureHumidityPressure
High73 °F (Feb 24, 12:50 pm)100% (Feb 18, 5:50 am)30.45 "Hg (Feb 18, 5:50 am)
Low36 °F (Feb 15, 5:20 am)26% (Feb 15, 11:50 am)29.53 "Hg (Feb 25, 4:20 pm)
Average55 °F75%30.03 "Hg
* Reported Feb 14 4:20 am — Feb 29 4:50 am, 37°04'N, 15°16'E. Weather by CustomWeather, © 2024

Note: Actual official high and low records may vary slightly from our data, if they occured in-between our weather recording intervals... More about our weather records

37°04'N, 15°16'E Weather History for the Previous 24 Hours

Scroll right to see more
 ConditionsComfort  
Time TempWeatherWind HumidityBarometerVisibility
4:50 am
Thu, Feb 29
46 °FPassing clouds.7 mph87%29.74 "HgN/A
4:20 am48 °FPassing clouds.10 mph87%29.74 "HgN/A
3:20 am48 °FPassing clouds.13 mph87%29.74 "HgN/A
2:50 am48 °FPassing clouds.12 mph87%29.74 "HgN/A
2:20 am50 °FPassing clouds.13 mph88%29.74 "HgN/A
1:50 am50 °FPassing clouds.9 mph88%29.77 "HgN/A
1:20 am50 °FPassing clouds.10 mph88%29.77 "HgN/A
12:50 am52 °FPassing clouds.10 mph88%29.77 "HgN/A
12:20 am52 °FPassing clouds.12 mph88%29.74 "HgN/A
11:50 pm
Wed, Feb 28
54 °FPassing clouds.12 mph88%29.74 "HgN/A
11:20 pm54 °FPassing clouds.8 mph88%29.74 "HgN/A
10:50 pm55 °FPassing clouds.12 mph82%29.74 "Hg6 mi
9:50 pm57 °FPassing clouds.14 mph82%29.74 "HgN/A
9:20 pm57 °FPartly cloudy.10 mph77%29.74 "Hg5 mi
8:50 pm57 °FPartly cloudy.8 mph88%29.71 "Hg5 mi
8:20 pm59 °FFog.6 mph94%29.71 "Hg3 mi
7:50 pm61 °FFog.2 mph88%29.71 "Hg2 mi
7:20 pm61 °FFog.5 mph88%29.68 "Hg2 mi
6:50 pm61 °FFog.5 mph88%29.68 "Hg2 mi
6:20 pm61 °FFog.9 mph88%29.68 "Hg2 mi
5:50 pm61 °FFog.6 mph88%29.68 "Hg2 mi
5:20 pm61 °FFog.6 mph88%29.68 "Hg2 mi
4:50 pm63 °FFog.8 mph83%29.68 "Hg2 mi
4:20 pm63 °FFog.8 mph83%29.68 "Hg2 mi
3:50 pm63 °FFog.9 mph83%29.68 "Hg2 mi
3:20 pm63 °FFog.14 mph83%29.68 "Hg2 mi
2:50 pm63 °FFog.12 mph83%29.68 "Hg2 mi
2:20 pm63 °FFog.14 mph83%29.68 "Hg3 mi
1:50 pm64 °FFog.15 mph78%29.68 "Hg3 mi
1:20 pm63 °FFog.13 mph83%29.68 "Hg3 mi
12:50 pm63 °FFog.14 mph83%29.71 "Hg3 mi
12:20 pm63 °FFog.16 mph83%29.71 "Hg3 mi
11:50 am63 °FPartly sunny.17 mph83%29.71 "Hg4 mi
11:20 am61 °FPartly sunny.17 mph88%29.71 "Hg4 mi
10:50 am61 °FPartly sunny.17 mph88%29.71 "Hg4 mi
10:20 am61 °FPartly sunny.18 mph88%29.71 "Hg4 mi
9:50 am61 °FBroken clouds.21 mph88%29.74 "Hg4 mi
9:20 am61 °FBroken clouds.18 mph83%29.74 "Hg5 mi
8:50 am61 °FLight rain. Broken clouds.18 mph83%29.74 "Hg4 mi
8:20 am61 °FLight rain. Scattered clouds.17 mph83%29.74 "Hg4 mi
7:50 am61 °FLight rain. Broken clouds.18 mph83%29.77 "Hg4 mi
7:20 am61 °FLight rain. Broken clouds.20 mph83%29.77 "Hg4 mi
6:50 am61 °FBroken clouds.18 mph83%29.77 "Hg5 mi
6:20 am61 °FPassing clouds.17 mph77%29.77 "Hg5 mi
Weather by CustomWeather, © 2024

See weather overview